User: anonymous   Login
Location: Unspecified
(0.0000°N, 0.0000°E)
Time: 00:03:05
(UTC+01:00)
Language:

Resurs 1-3 - Orbit

View from above orbital plane
View from above orbital plane
View from above satellite
View from above satellite

Ground track
Ground track

The orbit data is extracted from the following two-line orbital elements,

1 23342U 94074A   14331.05066509  .00000634  00000-0  93941-4 0  3606
2 23342 098.1622 343.5377 0001143 132.0328 287.8297 14.78607326 79850
Epoch (UTC): 27 November 2014 01:12:57
Eccentricity: 0.0001143
inclination: 98.1622°
perigee height: 633 km
apogee height: 634 km
right ascension of ascending node: 343.5377°
argument of perigee: 132.0328°
revolutions per day: 14.78607326
mean anomaly at epoch: 287.8297°
orbit number at epoch: 7985

The dashed part of the orbit path shows where the satellite is in the earth's shadow,  

DLR